Regional Weather Roundup
Issued by NWS

Home | Current Version | Previous Version | Text Only | Print | Product List | Glossary On
Versions: 1 2 3 4 5 6 7 8 9 10 11 12 13 14 15 16 17 18 19 20 21 22 23 24 25 26 27 28 29 30 31 32 33 34 35 36 37 38 39 40 41 42 43 44 45 46 47 48 49 50
000
ASUS44 KMEG 191910
RWRTN
TENNESSEE HOURLY STATE WEATHER ROUNDUP
NATIONAL WEATHER SERVICE MEMPHIS TN
100 PM CST FRI JAN 19 2018

TNZ002-004-019-021-049-052-054-088>092-192000-
WEST TENNESSEE

CITY           SKY/WX    TMP DP  RH WIND       PRES   REMARKS
MEMPHIS INTL   CLOUDY    41  21  44 S15       30.24F
NWS MEMPHIS      N/A     42 N/A N/A MISG        N/A
JACKSON        CLOUDY    44  19  36 SW8       30.23F
DYERSBURG      PTSUNNY   43  20  39 S5        30.22F
SOMERVILLE     CLOUDY    45  19  36 SW9       30.22F
COVINGTON      PTSUNNY   43  21  42 SW14G20   30.23F
UNION CITY     SUNNY     37  23  56 S14       30.20F WCI  29
BOLIVAR        CLOUDY    45  18  33 S8        30.23F
PARIS          SUNNY     39  19  45 S12       30.19F WCI  32
HUNTINGDON     SUNNY     43  18  36 SW9       30.21F
LEXINGTON      SUNNY     45  18  33 S10       30.24F
SELMER         PTSUNNY   46  16  29 SW7       30.24F
SAVANNAH       SUNNY     46  19  34 SW8G14    30.25F
$$

TNZ008-025-027-028-033-062-065-066-192000-
NORTH MIDDLE TENNESSEE

CITY           SKY/WX    TMP DP  RH WIND       PRES   REMARKS
NASHVILLE      FAIR      45  16  31 SW9       30.24F
PORTLAND       SUNNY     39  19  45 SW9       30.20F WCI  33
CLARKSVILLE    FAIR      39  16  39 S13       30.20F WCI  31
SMYRNA         FAIR      45  16  31 S8        30.25F
COOKEVILLE     SUNNY     41  18  38 S8        30.22F
GALLATIN       SUNNY     45  18  33 VRB6      30.25F
CROSSVILLE     FAIR      42   3  19 SW6       30.20F
$$

TNZ061-075-076-078-094-096-097-192000-
SOUTH MIDDLE TENNESSEE

CITY           SKY/WX    TMP DP  RH WIND       PRES   REMARKS
FAYETTEVILLE   SUNNY     45  12  26 SW9       30.25F
TULLAHOMA      SUNNY     43  10  26 SW5       30.24F
WINCHESTER     SUNNY     43  12  28 W6        30.26F
MCMINNVILLE    SUNNY     43  14  31 SW10      30.24F
COLUMBIA       SUNNY     45  18  33 S6G13     30.22F
SHELBYVILLE    SUNNY     43  16  33 SW10      30.25F
$$

TNZ017-018-042-046-047-192000-
NORTHEAST TENNESSEE

CITY           SKY/WX    TMP DP  RH WIND       PRES   REMARKS
TRI CITIES     FAIR      41  15  35 S7        30.22F
ELIZABETHTON   FAIR      43   9  24 SW6       30.21F
$$

TNZ012-013-036-069-073-074-192000-
CENTRAL EAST TENNESSEE

CITY           SKY/WX    TMP DP  RH WIND       PRES   REMARKS
KNOXVILLE      FAIR      44  16  32 SW5       30.23F
OAK RIDGE      FAIR      42  13  30 VRB5      30.25F
DOWNTOWN KNOXV SUNNY     43  14  31 W5        30.25F
GATLINBURG     SUNNY     41  16  36 CALM      30.24F
MORRISTOWN     SUNNY     41  14  33 VRB3      30.22F
JACKSBORO      SUNNY     39  18  41 VRB5      30.27F
$$

TNZ083-085-099-192000-
SOUTHEAST TENNESSEE

CITY           SKY/WX    TMP DP  RH WIND       PRES   REMARKS
CHATTANOOGA    FAIR      45  11  25 CALM      30.27F
DAYTON         CLEAR     43  19  39 SW7       30.25F
$$

SKY/WX REPORTED AS FAIR MEANS FEW OR NO CLOUDS BELOW
12 THOUSAND FEET.





USA.gov is the U.S. government's official web portal to all federal, state and local government web resources and services.